Regional Weather Roundup
Issued by NWS

Home | Current Version | Previous Version | Text Only | Print | Product List | Glossary On
Versions: 1 2 3 4 5 6 7 8 9 10 11 12 13 14 15 16 17 18 19 20 21 22 23 24 25 26 27
000
ASUS45 KREV 231810
RWRNV
NEVADA REGIONAL WEATHER ROUNDUP
NATIONAL WEATHER SERVICE RENO NV
1100 AM PDT MON APR 23 2018

NOTE: "FAIR" INDICATES FEW OR NO CLOUDS BELOW 12,000 FEET WITH NO
SIGNIFICANT WEATHER AND/OR OBSTRUCTIONS TO VISIBILITY.

NVZ001-003-004-231900-
WESTERN NEVADA

CITY           SKY/WX    TMP DP  RH WIND       PRES   REMARKS
RENO           PTSUNNY   63  21  20 S6        30.20F
6HR MIN TEMP:  44; 6HR MAX TEMP:  63;

CARSON CITY    FAIR      61  21  21 E12       30.22S
MINDEN         FAIR      59  28  31 NW7       30.22S
SLIDE MTN        N/A     37  28  70 E7          N/A
FALLON         PTSUNNY   61  26  26 VRB3      30.21S
6HR MIN TEMP:  39; 6HR MAX TEMP:  61;

LOVELOCK       MOSUNNY   62  20  19 N12       30.21R
6HR MIN TEMP:  44; 6HR MAX TEMP:  62;

HAWTHORNE      SUNNY     61  21  21 NW14      30.19F
$$

NVZ002-CAZ072-073-231900-
NORTHERN AND CENTRAL SIERRA

CITY           SKY/WX    TMP DP  RH WIND       PRES   REMARKS
S. LAKE TAHOE  SUNNY     55  32  41 VRB5      30.22R
6HR MIN TEMP:  29; 6HR MAX TEMP:  55;

TRUCKEE        MOSUNNY   54  28  37 CALM      30.23S
SQUAW VLY 8000   N/A     46  28  49 SE3         N/A
BLUE CANYON    SUNNY     63  18  17 VRB7      30.18R
MAMMOTH LAKES  FAIR      62  26  25 E10       30.23F
6HR MIN TEMP:  28; 6HR MAX TEMP:  62;

BRIDGEPORT     FAIR      58  23  26 CALM      30.19F
$$

NVZ030-031-036-231900-
NORTHERN NEVADA

CITY           SKY/WX    TMP DP  RH WIND       PRES   REMARKS
ELKO           SUNNY     58  22  24 W8        30.21S
6HR MIN TEMP:  32; 6HR MAX TEMP:  58;

WINNEMUCCA     SUNNY     59  26  28 NW7       30.23S
6HR MIN TEMP:  31; 6HR MAX TEMP:  59;

WENDOVER       MOSUNNY   63  22  20 SE15      30.17S
$$

NVZ035-037-231900-
CENTRAL NEVADA

CITY           SKY/WX    TMP DP  RH WIND       PRES   REMARKS
ELY            MOSUNNY   60  22  23 N5        30.21R
6HR MIN TEMP:  33; 6HR MAX TEMP:  61;

EUREKA           N/A     57  28  33 N6        30.22S
6HR MIN TEMP:  29; 6HR MAX TEMP:  58;

$$

NVZ013-014-231900-
SOUTH CENTRAL NEVADA

CITY           SKY/WX    TMP DP  RH WIND       PRES   REMARKS
TONOPAH        SUNNY     69  25  19 NW9G17    30.16S
6HR MIN TEMP:  44; 6HR MAX TEMP:  69;

$$

NVZ017-020-022-231900-
SOUTHERN NEVADA

CITY           SKY/WX    TMP DP  RH WIND       PRES   REMARKS
LAS VEGAS      MOSUNNY   84  23  10 VRB5      29.99S
6HR MIN TEMP:  68; 6HR MAX TEMP:  84;

N. LAS VEGAS   SUNNY     82  22  11 E5        29.98S
6HR MIN TEMP:  61; 6HR MAX TEMP:  83;

NELLIS AFB     NOT AVBL
HENDERSON      SUNNY     84  26  12 VRB3      30.01S
6HR MIN TEMP:  67; 6HR MAX TEMP:  85;

MERCURY        SUNNY     79  28  15 SW7       30.04S
6HR MIN TEMP:  54; 6HR MAX TEMP:  79;

$$




USA.gov is the U.S. government's official web portal to all federal, state and local government web resources and services.